Cape Girardeau, MO

3:13 AM CDT on March 29, 2017 (GMT -0500)
Cape Girardeau Regional

Weather History for KCGI - January, 2012

Change the Weather History Date:

Friday, January 27, 2012

  Actual Average Record
Temperature  
Mean Temperature 37 °F 34 °F  
Max Temperature 43 °F 43 °F 65 °F (1999)
Min Temperature 31 °F 24 °F -7 °F (1961)
Degree Days  
Heating Degree Days 28 31  
Month to date heating degree days 713 862  
Since 1 July heating degree days 2189 2613  
Cooling Degree Days 0 0  
Month to date cooling degree days 0 0  
Year to date cooling degree days 0 0  
Moisture  
Dew Point 34 °F    
Average Humidity 83    
Maximum Humidity 96    
Minimum Humidity 70    
Precipitation  
Precipitation T in 0.11 in 1.38 in (1972)
Month to date precipitation 2.95 3.00  
Year to date precipitation 2.95 3.00  
Sea Level Pressure  
Sea Level Pressure 29.99 in    
Wind  
Wind Speed 4 mph (SSW)    
Max Wind Speed 7 mph    
Max Gust Speed 10 mph    
Visibility 8 miles    
Events Rain    
T = Trace of Precipitation, MM = Missing Value Source: NWS Daily Summary

Daily Weather History Graph

Daily Weather History Graph

Search for Another Location

Airport or City:

Trip Planner

Search our weather history database for the weather conditions in past years. The results will help you decide how hot, cold, wet, or windy it might be!

Date:

Astronomy

Jan. 27, 2012 Rise Set
Actual Time 7:05 AM CST 5:16 PM CST
Civil Twilight 6:37 AM CST 5:44 PM CST
Nautical Twilight 6:06 AM CST 6:16 PM CST
Astronomical Twilight 5:35 AM CST 6:47 PM CST
Moon 9:07 AM CST (1/27) 9:59 PM CST (1/27)
Length of Visible Light 11h 07m
Length of Day
10h 11m
Waxing Crescent, 20% of the Moon is Illuminated
Jan 27
Waxing Crescent
Jan 30
First Quarter
Feb 7
Full
Feb 14
Last Quarter
Feb 21
New

Hourly Weather History & Observations

Time (CST) Temp. Windchill Dew Point Humidity Pressure Visibility Wind Dir Wind Speed Gust Speed Precip Events Conditions
12:53 AM 36.0 °F 32.1 °F 34.0 °F 93% 29.83 in 6.0 mi WSW 4.6 mph - N/A   Scattered Clouds
1:53 AM 34.0 °F 28.0 °F 32.0 °F 92% 29.85 in 6.0 mi West 6.9 mph - N/A   Clear
2:53 AM 33.1 °F 27.7 °F 32.0 °F 96% 29.88 in 5.0 mi West 5.8 mph - N/A   Clear
3:53 AM 34.0 °F - 32.0 °F 92% 29.89 in 7.0 mi Calm Calm - N/A   Mostly Cloudy
4:53 AM 32.0 °F 26.4 °F 30.0 °F 92% 29.93 in 6.0 mi West 5.8 mph - N/A   Clear
5:53 AM 32.0 °F - 30.0 °F 92% 29.95 in 7.0 mi Calm Calm - N/A   Clear
6:53 AM 32.0 °F 25.6 °F 30.2 °F 93% 29.99 in 9.0 mi West 6.9 mph - N/A   Clear
7:33 AM 35.6 °F 29.9 °F 30.2 °F 81% 30.01 in 10.0 mi WNW 6.9 mph - N/A   Mostly Cloudy
7:53 AM 33.1 °F 30.0 °F 32.0 °F 96% 30.03 in 7.0 mi WNW 3.5 mph - N/A   Overcast
8:53 AM 36.0 °F 31.1 °F 32.0 °F 86% 30.01 in 9.0 mi NNW 5.8 mph - N/A   Overcast
9:53 AM 37.9 °F 32.1 °F 32.0 °F 79% 30.04 in 10.0 mi North 8.1 mph - N/A   Overcast
10:53 AM 39.0 °F - 33.1 °F 79% 30.06 in 10.0 mi Calm Calm - N/A   Mostly Cloudy
11:32 AM 39.2 °F - 33.8 °F 81% 30.05 in 10.0 mi Calm Calm - N/A   Scattered Clouds
11:53 AM 39.9 °F - 33.1 °F 77% 30.06 in 10.0 mi Calm Calm - N/A   Partly Cloudy
12:53 PM 41.0 °F 39.0 °F 33.1 °F 73% 30.02 in 10.0 mi SE 3.5 mph - N/A   Clear
1:53 PM 42.1 °F 40.2 °F 34.0 °F 73% 30.01 in 10.0 mi ESE 3.5 mph - N/A   Clear
2:53 PM 42.1 °F 38.4 °F 33.1 °F 70% - 10.0 mi South 5.8 mph - N/A   Clear
3:53 PM 43.0 °F 41.3 °F 36.0 °F 76% 30.04 in 10.0 mi SE 3.5 mph - N/A   Unknown
4:53 PM 42.1 °F 39.2 °F 37.0 °F 82% 30.02 in 8.0 mi ESE 4.6 mph - N/A   Clear
5:53 PM 39.9 °F 35.8 °F 36.0 °F 86% 30.03 in 9.0 mi East 5.8 mph - N/A   Clear
6:53 PM 39.2 °F 35.0 °F 35.6 °F 87% 30.02 in 9.0 mi ESE 5.8 mph - N/A   Clear
7:53 PM 39.0 °F 36.8 °F 35.1 °F 86% 30.01 in 8.0 mi East 3.5 mph - N/A   Clear
8:53 PM 39.0 °F - 36.0 °F 89% 30.02 in 8.0 mi Calm Calm - N/A   Clear
9:53 PM 39.9 °F 37.8 °F 36.0 °F 86% 30.03 in 8.0 mi SSE 3.5 mph - N/A   Scattered Clouds
10:53 PM 39.9 °F 36.7 °F 37.0 °F 89% 30.04 in 6.0 mi NW 4.6 mph - N/A   Overcast
11:53 PM 39.0 °F - 37.0 °F 93% 30.01 in 5.0 mi Calm Calm - 0.00 in Rain Light Rain